User: anonymous   Login
Location: Casteau
(50.5142°N, 4.0161°E)
Time: 06:15:23
(UTC+00:00)
Language:

NUSAT-11 CORA - Orbit

View from above orbital plane
View from above orbital plane
View from above satellite
View from above satellite

Ground track
Ground track

The orbit data is extracted from the following two-line orbital elements,

1 46829U 20079C   21338.88420564  .00005462  00000-0  17078-3 0  9994
2 46829  97.2173  48.2746 0006091 302.8409 177.4137 15.33540502 60287
Epoch (UTC): 04 December 2021 21:13:15
Eccentricity: 0.0006091
inclination: 97.2173°
perigee height: 461 km
apogee height: 469 km
right ascension of ascending node: 48.2746°
argument of perigee: 302.8409°
revolutions per day: 15.33540502
mean anomaly at epoch: 177.4137°
orbit number at epoch: 6028

The dashed part of the orbit path shows where the satellite is in the earth's shadow,  

DLR